Torna al catalogo

SL-16 DEB

AttivoLEO
NORAD 27750·DEBRIS·🇷🇺 Russia

Lanciato Dec 25, 1992 da Baikonur Cosmodrome

Loading…

Prossimi Passaggi (prossime 24 ore)

TLE

In scadenzaSource: Space-Track

Epoca: Sep 12, 2026, 10:14 UTC

1 27750U 92093JM  26255.42669482  .00002060  00000-0  65095-3 0  9991
2 27750  71.1500 254.4325 0071572 116.0088 244.8443 14.39896903684423

Traccia SL-16 DEB in tempo reale con AllMySat

Download on the App Store